TimeEST,TemperatureF,Dew PointF,Humidity,Sea Level PressureIn,VisibilityMPH,Wind Direction,Wind SpeedMPH,Gust SpeedMPH,PrecipitationIn,Events,Conditions,WindDirDegrees,DateUTC
12:11 AM,48.2,42.8,82,29.68,10.0,South,10.4,-,N/A,,Overcast,170,2012-12-16 05:11:00
12:31 AM,50.0,44.6,82,29.68,10.0,South,11.5,-,N/A,,Overcast,180,2012-12-16 05:31:00
12:51 AM,50.0,44.6,82,29.66,10.0,South,10.4,-,N/A,,Overcast,180,2012-12-16 05:51:00
1:11 AM,50.0,44.6,82,29.66,10.0,South,12.7,17.3,N/A,,Overcast,180,2012-12-16 06:11:00
1:31 AM,50.0,44.6,82,29.66,10.0,South,11.5,16.1,N/A,Rain,Light Rain,180,2012-12-16 06:31:00
1:51 AM,50.0,46.4,87,29.66,10.0,South,11.5,16.1,N/A,Rain,Light Rain,190,2012-12-16 06:51:00
2:12 AM,48.2,46.4,93,29.65,7.0,South,9.2,-,N/A,Rain,Light Rain,190,2012-12-16 07:12:00
2:32 AM,48.2,46.4,93,29.65,10.0,South,8.1,-,N/A,Rain,Rain,180,2012-12-16 07:32:00
2:52 AM,48.2,46.4,93,29.65,7.0,South,4.6,-,N/A,Rain,Light Rain,190,2012-12-16 07:52:00
3:12 AM,48.2,46.4,93,29.66,7.0,SSW,4.6,-,N/A,Rain,Light Rain,210,2012-12-16 08:12:00
3:54 AM,48.2,48.2,100,29.64,5.0,South,3.5,-,N/A,Rain,Light Rain,190,2012-12-16 08:54:00
4:15 AM,48.2,46.4,93,29.65,3.0,West,5.8,-,N/A,Rain,Rain,280,2012-12-16 09:15:00
4:35 AM,48.2,48.2,100,29.65,3.0,South,3.5,-,N/A,Rain,Rain,170,2012-12-16 09:35:00
4:55 AM,48.2,48.2,100,29.64,3.0,Calm,Calm,-,N/A,Rain,Rain,0,2012-12-16 09:55:00
5:15 AM,48.2,48.2,100,29.65,2.5,South,3.5,-,N/A,Rain,Light Rain,170,2012-12-16 10:15:00
5:35 AM,48.2,48.2,100,29.65,4.0,Calm,Calm,-,N/A,Rain,Light Rain,0,2012-12-16 10:35:00
5:55 AM,48.2,48.2,100,29.64,4.0,Calm,Calm,-,N/A,,Overcast,0,2012-12-16 10:55:00
6:16 AM,48.2,48.2,100,29.64,3.0,Calm,Calm,-,N/A,Rain,Light Rain,0,2012-12-16 11:16:00
6:36 AM,48.2,48.2,100,29.64,2.5,Calm,Calm,-,N/A,,Overcast,0,2012-12-16 11:36:00
6:51 AM,48.2,48.2,100,29.64,1.8,SE,3.5,-,N/A,,Overcast,140,2012-12-16 11:51:00
7:31 AM,48.2,48.2,100,29.64,4.0,Calm,Calm,-,N/A,,Overcast,0,2012-12-16 12:31:00
8:11 AM,51.8,50.0,94,29.64,7.0,South,4.6,-,N/A,,Overcast,180,2012-12-16 13:11:00
8:31 AM,51.8,50.0,94,29.64,5.0,South,5.8,-,N/A,,Overcast,190,2012-12-16 13:31:00
8:51 AM,51.8,51.8,100,29.64,7.0,South,6.9,-,N/A,,Overcast,190,2012-12-16 13:51:00
9:11 AM,53.6,51.8,94,29.64,7.0,South,6.9,-,N/A,,Overcast,190,2012-12-16 14:11:00
9:32 AM,53.6,51.8,94,29.64,7.0,SSW,9.2,-,N/A,,Overcast,200,2012-12-16 14:32:00
9:52 AM,53.6,51.8,94,29.64,7.0,South,11.5,-,N/A,,Overcast,190,2012-12-16 14:52:00
10:12 AM,55.4,51.8,88,29.64,10.0,SSW,12.7,-,N/A,,Overcast,200,2012-12-16 15:12:00
10:32 AM,55.4,51.8,88,29.64,10.0,SSW,11.5,-,N/A,,Overcast,200,2012-12-16 15:32:00
10:52 AM,55.4,51.8,88,29.64,10.0,SSW,10.4,-,N/A,,Overcast,210,2012-12-16 15:52:00
11:12 AM,57.2,51.8,82,29.64,10.0,SW,15.0,23.0,N/A,,Overcast,220,2012-12-16 16:12:00
11:32 AM,57.2,51.8,82,29.64,10.0,SW,13.8,-,N/A,,Overcast,230,2012-12-16 16:32:00
11:52 AM,57.2,50.0,77,29.63,10.0,SW,19.6,26.5,N/A,,Overcast,230,2012-12-16 16:52:00
12:12 PM,55.4,50.0,82,29.63,10.0,SW,15.0,24.2,N/A,,Overcast,230,2012-12-16 17:12:00
12:33 PM,55.4,50.0,82,29.63,10.0,SW,16.1,26.5,N/A,,Overcast,230,2012-12-16 17:33:00
12:53 PM,55.4,48.2,77,29.62,10.0,SW,17.3,27.6,N/A,,Overcast,230,2012-12-16 17:53:00
1:13 PM,55.4,48.2,77,29.62,10.0,WSW,15.0,18.4,N/A,,Overcast,240,2012-12-16 18:13:00
1:33 PM,55.4,46.4,72,29.61,10.0,SW,16.1,20.7,N/A,,Overcast,230,2012-12-16 18:33:00
1:53 PM,55.4,46.4,72,29.61,10.0,WSW,15.0,-,N/A,,Overcast,240,2012-12-16 18:53:00
2:13 PM,53.6,46.4,77,29.60,10.0,WSW,10.4,-,N/A,,Overcast,250,2012-12-16 19:13:00
2:33 PM,53.6,46.4,77,29.60,10.0,WSW,8.1,-,N/A,,Overcast,250,2012-12-16 19:33:00
2:53 PM,53.6,46.4,77,29.60,10.0,WSW,6.9,-,N/A,,Overcast,240,2012-12-16 19:53:00
3:13 PM,53.6,46.4,77,29.59,10.0,WSW,5.8,-,N/A,,Overcast,240,2012-12-16 20:13:00
3:34 PM,53.6,48.2,82,29.59,10.0,SW,3.5,-,N/A,,Overcast,230,2012-12-16 20:34:00
3:54 PM,53.6,48.2,82,29.60,10.0,SW,3.5,-,N/A,,Overcast,220,2012-12-16 20:54:00
4:14 PM,53.6,48.2,82,29.61,10.0,SW,5.8,-,N/A,,Overcast,230,2012-12-16 21:14:00
4:34 PM,53.6,48.2,82,29.60,10.0,SW,4.6,-,N/A,,Overcast,220,2012-12-16 21:34:00
4:54 PM,53.6,48.2,82,29.61,10.0,SW,8.1,-,N/A,,Overcast,230,2012-12-16 21:54:00
5:14 PM,53.6,46.4,77,29.62,10.0,SW,10.4,-,N/A,,Overcast,230,2012-12-16 22:14:00
5:34 PM,53.6,48.2,82,29.62,10.0,SW,8.1,-,N/A,,Overcast,230,2012-12-16 22:34:00
5:54 PM,53.6,46.4,77,29.62,10.0,WSW,9.2,16.1,N/A,,Overcast,240,2012-12-16 22:54:00
6:14 PM,51.8,46.4,82,29.61,10.0,WSW,11.5,16.1,N/A,,Overcast,240,2012-12-16 23:14:00
6:34 PM,51.8,46.4,82,29.61,10.0,WSW,8.1,-,N/A,,Overcast,240,2012-12-16 23:34:00
6:54 PM,51.8,46.4,82,29.61,10.0,SW,5.8,-,N/A,,Overcast,230,2012-12-16 23:54:00
7:15 PM,51.8,46.4,82,29.62,10.0,WSW,8.1,-,N/A,,Overcast,240,2012-12-17 00:15:00
7:35 PM,51.8,46.4,82,29.63,10.0,WSW,6.9,-,N/A,,Overcast,240,2012-12-17 00:35:00
7:55 PM,51.8,44.6,76,29.63,10.0,West,8.1,-,N/A,,Overcast,260,2012-12-17 00:55:00
8:15 PM,51.8,44.6,76,29.64,10.0,West,8.1,-,N/A,,Overcast,260,2012-12-17 01:15:00
8:35 PM,51.8,44.6,76,29.64,10.0,West,8.1,-,N/A,,Overcast,260,2012-12-17 01:35:00
8:55 PM,50.0,44.6,82,29.64,10.0,WSW,6.9,-,N/A,,Overcast,240,2012-12-17 01:55:00
9:15 PM,50.0,44.6,82,29.64,10.0,WNW,9.2,-,N/A,,Overcast,290,2012-12-17 02:15:00
9:35 PM,48.2,44.6,87,29.64,10.0,West,8.1,-,N/A,,Overcast,270,2012-12-17 02:35:00
9:56 PM,48.2,44.6,87,29.65,10.0,West,6.9,-,N/A,,Overcast,260,2012-12-17 02:56:00
10:16 PM,48.2,44.6,87,29.65,10.0,West,8.1,-,N/A,,Overcast,260,2012-12-17 03:16:00
10:31 PM,48.2,44.6,87,29.66,10.0,West,11.5,-,N/A,,Overcast,270,2012-12-17 03:31:00
10:51 PM,48.2,42.8,82,29.67,10.0,West,17.3,21.9,N/A,,Overcast,280,2012-12-17 03:51:00
11:11 PM,46.4,41.0,81,29.68,10.0,West,11.5,-,N/A,,Overcast,260,2012-12-17 04:11:00
11:31 PM,46.4,41.0,81,29.68,10.0,West,10.4,-,N/A,,Overcast,260,2012-12-17 04:31:00
11:51 PM,46.4,41.0,81,29.68,10.0,West,10.4,-,N/A,,Overcast,260,2012-12-17 04:51:00